Cloud_Cover
64 56 56 48 48 48 48 44 44 44 44 44 44 44 44 36 36 36 32 32 24 24 24 20 20 12 12 8 8 8 12 12 8 8 8 8 8 8 8 0 0 0 0 0 8 8 8 0 0 0 8 8 0 0 0 0 0 0 0 0 0 0 0 0 0 0 0 0 0
48 48 48 48 48 48 44 44 44 36 36 36 32 32 32 32 24 24 20 20 20 20 12 8 8 8 8 8 8 12 12 8 8 8 0 0 0 0 0 0 0 8 8 8 8 8 8 0 8 8 8 0 0 0 0 0 0 0 0 0 0 8 12 20 36 36 24 12 0
48 44 36 44 44 36 36 36 32 32 24 24 24 24 20 20 20 20 20 20 20 24 20 8 8 8 8 12 12 12 8 8 8 8 0 0 0 0 0 0 8 8 8 8 8 8 8 8 8 0 0 0 0 0 0 0 0 0 0 0 8 24 32 36 48 64 64 56 24
68 56 44 36 32 24 24 20 20 20 20 20 12 12 12 12 20 24 24 32 24 24 20 8 8 8 8 12 12 12 8 8 8 8 8 8 8 8 8 8 8 8 8 12 12 12 8 8 0 0 0 0 0 0 0 0 8 8 8 0 0 0 12 36 56 64 64 56 64
68 64 48 32 24 20 20 12 12 12 12 20 20 20 24 24 32 32 32 32 24 20 12 8 8 8 12 12 12 12 8 8 8 8 8 8 8 8 8 12 12 12 12 12 8 8 8 0 0 0 0 0 0 0 0 0 0 0 0 0 32 44 48 48 68 76 80 80 80
64 56 48 32 24 24 20 12 8 8 12 20 20 20 20 20 24 24 24 24 20 12 12 12 12 12 20 12 12 12 12 12 12 12 8 8 12 12 12 12 12 12 12 8 8 0 0 0 0 0 0 0 0 8 20 20 12 8 0 20 44 56 56 48 44 48 68 76 80
56 48 48 36 36 32 32 24 20 20 20 20 12 12 12 8 12 20 20 12 12 12 12 12 12 12 12 12 12 12 12 12 12 12 12 12 8 12 12 12 12 8 8 8 0 0 0 0 0 0 0 0 0 12 24 32 32 36 44 48 56 56 56 56 48 56 56 44 80
56 48 44 44 36 36 36 32 32 32 24 24 20 20 12 12 12 12 12 20 20 20 12 20 20 20 20 20 20 20 12 12 12 12 8 8 8 8 8 8 8 8 0 0 0 0 0 0 0 0 0 0 0 8 20 32 44 36 32 56 56 56 64 68 68 76 80 92 92
64 64 56 44 36 36 32 32 32 32 32 24 24 24 24 24 24 24 24 24 20 20 20 20 20 20 20 20 20 12 12 12 8 8 8 8 8 8 8 0 0 0 0 0 0 0 0 0 0 0 0 0 0 0 0 0 0 0 8 32 44 56 64 68 80 88 92 92 92
56 56 48 44 36 36 32 32 32 32 24 24 32 32 32 32 24 20 20 20 20 20 20 20 20 20 20 12 12 12 12 8 8 8 8 0 0 0 0 0 0 0 0 0 0 0 0 0 0 0 0 0 0 0 0 0 0 0 0 0 20 48 80 88 92 92 92 88 92
36 36 32 32 24 24 24 24 24 24 24 20 20 20 20 20 20 20 20 20 20 20 20 20 20 12 12 12 12 12 8 8 0 0 0 0 0 0 0 0 0 0 0 0 0 0 0 0 0 0 0 0 0 0 0 8 0 0 0 0 12 44 68 76 76 76 80 88 88
36 24 20 20 20 20 20 24 20 20 20 20 20 20 20 20 20 20 20 20 20 20 20 12 12 12 12 8 8 8 8 0 0 0 0 0 0 0 0 0 0 0 0 0 0 0 0 0 0 0 0 0 0 8 8 8 0 0 0 0 24 36 48 80 80 68 64 76 64
36 24 20 20 20 20 20 20 20 20 20 20 20 20 20 20 20 20 20 20 20 12 12 12 8 8 8 8 0 0 0 0 0 0 0 0 0 0 0 0 0 0 0 0 0 0 0 0 0 0 0 0 0 0 0 12 12 20 20 20 44 56 68 80 76 44 12 20 20
36 24 20 20 20 20 20 20 20 20 20 20 20 20 20 20 20 20 20 12 12 12 12 8 8 8 0 0 0 0 0 0 0 0 0 0 0 0 0 0 0 0 0 0 0 0 0 0 0 0 0 0 0 0 20 56 64 44 32 32 36 36 32 24 20 12 8 12 8
36 24 20 20 20 20 20 20 20 12 12 12 12 12 12 20 12 12 12 12 12 8 8 8 8 0 0 0 0 0 0 0 0 0 0 0 0 0 0 0 0 0 0 0 0 0 0 0 0 0 0 8 20 24 36 68 64 36 12 8 8 8 0 0 0 0 8 8 20
24 20 12 20 20 20 12 12 12 12 12 12 12 12 12 12 12 12 12 8 8 8 8 8 8 0 0 0 0 0 0 0 0 0 0 0 0 0 0 0 0 0 0 0 0 0 0 0 0 0 8 36 64 48 32 12 8 0 0 8 8 8 8 8 12 12 12 12 36
12 12 12 12 12 12 12 12 12 12 12 12 12 12 12 12 12 8 8 8 8 8 0 0 0 0 0 0 0 0 0 0 0 0 0 0 0 0 0 0 0 0 0 8 12 8 0 0 0 0 12 48 48 32 12 0 0 8 8 12 8 12 20 20 24 24 24 32 56
8 8 8 8 8 8 8 8 8 8 8 8 8 8 8 8 8 8 8 0 0 0 0 0 0 0 0 0 0 0 0 0 0 8 8 0 0 0 0 0 0 0 0 20 12 12 8 0 0 0 12 32 32 20 8 8 12 20 20 24 24 24 24 24 20 20 20 32 64
8 8 8 8 8 8 8 8 8 8 8 0 0 0 0 0 0 0 0 0 0 0 0 0 0 0 0 0 0 0 0 0 8 8 0 0 0 0 0 0 0 0 0 20 20 12 8 0 0 0 12 20 24 32 32 24 32 32 32 32 20 12 12 12 24 32 32 32 48
0 0 0 0 0 0 0 0 0 0 0 0 0 0 0 0 0 0 0 0 0 0 0 0 0 0 0 0 0 0 0 8 0 0 0 0 8 8 8 8 0 0 8 32 24 20 8 0 0 0 8 8 36 48 48 36 36 32 24 12 8 8 12 24 32 44 56 64 56
0 0 0 0 0 0 0 12 20 12 0 0 0 0 0 0 0 0 0 0 0 0 0 0 0 0 0 0 0 0 0 0 8 8 8 12 12 12 8 8 0 8 12 36 32 20 8 0 0 12 32 36 44 44 36 32 24 24 20 20 20 24 32 56 48 48 56 64 56
0 0 0 0 0 0 0 8 12 8 0 0 0 0 0 0 0 0 0 8 0 0 0 0 12 24 36 32 20 12 12 8 8 8 8 8 8 8 0 0 0 12 24 32 24 20 12 24 36 48 56 44 36 24 24 24 20 24 24 36 48 56 64 76 80 76 76 76 80
0 0 0 0 0 0 0 0 0 0 0 0 0 0 0 0 0 0 0 8 24 32 32 24 64 80 80 64 44 32 20 12 8 8 8 8 8 8 8 0 0 12 20 24 20 12 12 20 48 56 44 32 24 24 24 32 24 32 36 64 76 80 80 80 80 88 92 92 92
0 0 0 0 0 0 0 0 0 0 0 0 0 0 0 8 20 8 0 0 8 32 48 48 68 64 56 48 36 24 12 0 0 8 12 8 8 8 8 0 8 8 12 12 8 0 12 56 68 64 48 36 32 36 36 36 44 44 48 80 80 88 92 92 92 92 92 88 92
0 0 0 0 0 0 0 0 0 0 0 0 0 0 0 0 0 20 32 32 24 24 24 12 24 24 20 24 24 24 20 0 8 8 12 8 8 8 8 8 8 8 8 0 0 24 56 76 80 76 48 24 32 36 44 48 56 56 64 80 88 92 92 92 92 92 92 92 92
0 0 0 0 8 12 12 12 12 12 12 12 8 0 0 0 0 0 12 44 44 32 20 36 36 24 12 0 20 24 24 12 0 0 0 0 0 8 8 8 8 8 8 32 48 76 92 92 68 48 36 20 32 44 48 56 68 76 80 92 92 92 92 92 88 88 92 92 92
0 0 0 0 0 0 0 8 8 8 8 8 0 0 0 12 20 8 8 44 24 12 8 0 8 24 44 44 44 48 44 32 12 0 0 0 0 8 8 8 8 20 32 36 56 68 80 76 56 36 32 32 44 48 56 68 88 92 92 92 92 92 92 92 88 76 76 92 92
0 0 0 0 0 0 0 0 0 0 0 0 0 0 0 12 24 24 24 20 56 48 32 12 56 56 48 76 76 76 68 44 20 8 0 0 0 0 0 0 0 0 12 36 48 56 48 36 36 36 36 48 48 56 68 92 92 92 92 92 92 92 92 92 92 92 92 92 92
0 0 0 0 0 0 0 0 0 0 0 0 0 0 0 0 0 0 8 36 80 88 64 32 80 92 92 92 92 88 68 32 12 8 0 0 0 0 0 0 0 0 8 36 44 44 36 32 44 56 64 64 64 76 88 92 92 92 92 92 92 92 92 92 92 92 92 92 92
0 0 0 0 0 0 0 0 0 0 0 0 0 0 0 20 32 36 48 88 92 92 92 92 92 92 92 92 88 76 68 64 32 12 8 0 0 0 0 0 0 0 12 32 36 24 20 32 56 64 68 92 92 92 80 76 88 92 92 88 88 80 80 92 92 92 92 92 92
0 0 0 0 0 0 0 0 0 0 0 0 0 0 0 0 36 64 76 92 92 92 88 80 76 68 68 68 76 80 68 48 20 8 0 0 0 0 0 0 0 12 24 32 32 32 24 36 76 88 92 92 92 88 80 76 92 92 92 88 80 80 88 92 92 92 92 92 92
0 0 0 0 0 0 0 0 0 0 0 0 0 0 0 0 44 76 92 92 92 76 56 48 56 56 56 68 80 80 76 48 24 8 0 0 0 0 0 0 12 24 24 24 20 20 32 56 88 92 92 92 92 92 92 92 92 92 92 92 88 88 92 92 92 92 92 92 92
0 0 0 0 0 0 0 0 0 0 0 0 0 0 0 0 12 48 88 92 92 80 56 44 44 48 64 92 92 88 76 48 32 12 0 0 0 0 0 0 0 8 12 12 8 20 48 92 92 92 92 92 92 92 92 92 92 92 88 80 76 88 92 92 92 92 92 88 92
0 0 0 0 0 0 0 0 0 0 0 0 0 0 0 0 8 24 48 88 92 80 64 48 44 48 56 64 68 68 76 80 64 44 24 8 0 0 0 0 0 0 12 56 64 76 92 92 92 92 92 92 88 88 92 92 92 88 80 92 92 92 88 88 92 92 92 92 92
0 0 0 0 0 0 0 0 0 0 0 0 0 0 0 0 8 20 48 92 92 80 68 48 44 44 44 48 48 56 68 92 92 92 80 56 36 20 12 12 12 20 36 68 76 80 88 92 92 92 92 92 92 92 92 92 80 80 88 92 92 80 68 68 88 92 92 92 92
0 0 0 0 0 0 0 0 0 0 0 0 0 0 0 0 8 24 48 88 76 64 48 36 44 48 48 44 36 44 48 64 76 88 92 92 88 68 56 56 64 48 44 48 76 92 92 88 92 92 92 92 92 92 92 92 92 92 88 92 92 92 92 92 92 92 92 92 92
0 0 0 0 0 0 0 0 0 0 0 0 0 0 0 0 0 0 8 44 44 32 12 8 20 32 44 48 36 36 32 24 32 36 56 68 76 64 56 64 56 32 12 36 80 92 92 92 92 92 92 92 92 92 92 92 92 92 92 92 92 92 92 92 92 92 92 92 92
0 0 0 0 0 0 0 0 0 0 0 0 0 0 0 0 0 0 0 0 8 8 0 0 0 8 12 24 32 24 12 12 0 0 0 8 12 20 24 20 0 0 8 44 80 92 92 92 92 92 92 92 92 88 88 92 92 92 92 92 92 92 92 92 92 92 92 92 88
0 0 0 0 0 0 0 0 0 0 0 0 0 0 0 0 0 0 0 0 0 0 0 0 0 0 0 0 8 8 0 0 0 0 0 0 0 0 0 0 0 0 8 36 80 92 92 88 80 80 76 76 68 68 80 92 92 92 92 92 92 92 92 92 92 92 92 92 92
0 0 0 0 0 0 0 0 0 0 0 0 0 0 0 0 0 0 0 0 0 0 0 0 0 0 0 8 0 0 0 0 0 0 0 0 0 0 0 0 8 8 12 32 56 76 76 64 56 44 44 48 64 68 80 92 92 92 92 92 92 92 92 92 92 92 92 92 92
0 0 0 0 0 0 0 0 0 0 0 0 0 0 0 0 0 0 0 0 0 0 0 0 0 0 0 8 0 0 0 0 0 0 0 0 0 0 8 20 36 44 44 36 36 36 36 32 24 44 64 76 88 92 92 92 92 92 92 92 92 92 92 92 92 92 92 92 92